Change the Weather History Date:

Wednesday, July 23, 2014

  Actual Average Record
Temperature  
Mean Temperature 76 °F -  
Max Temperature 83 °F 89 °F 99 °F (1981)
Min Temperature 70 °F 73 °F 69 °F (1984)
Cooling Degree Days 11    
Growing Degree Days 26 (Base 50)    
Moisture  
Dew Point 72 °F    
Average Humidity 83    
Maximum Humidity 98    
Minimum Humidity 70    
Precipitation  
Precipitation 0.00 in - - ()
Sea Level Pressure  
Sea Level Pressure 30.04 in    
Wind  
Wind Speed 4 mph (SSW)    
Max Wind Speed 12 mph    
Max Gust Speed -    
Visibility 10 miles    
Events      
Averages and records for this station are not official NWS values.
T = Trace of Precipitation, MM = Missing Value Source: NWS Daily Summary

Daily Weather History Graph

Daily Weather History Graph

Search for Another Location

Airport or City:

Trip Planner

Search our weather history database for the weather conditions in past years. The results will help you decide how hot, cold, wet, or windy it might be!

Date:

Astronomy

Jul. 23, 2014 Rise Set
Actual Time 6:08 AM CDT 7:55 PM CDT
Civil Twilight 5:41 AM CDT 8:22 PM CDT
Nautical Twilight 5:09 AM CDT 8:54 PM CDT
Astronomical Twilight 4:35 AM CDT 9:27 PM CDT
Moon 3:25 AM CDT (7/23) 5:25 PM CDT (7/23)
Length of Visible Light 14h 40m
Length of Day
13h 46m
Waning Crescent, 9% of the Moon is Illuminated
Jul 23
Waning Crescent
Jul 26
New
Aug 3
First Quarter
Aug 10
Full
Aug 17
Last Quarter

Hourly Weather History & Observations

Time (CDT) Temp. Heat Index Dew Point Humidity Pressure Visibility Wind Dir Wind Speed Gust Speed Precip Events Conditions
12:58 AM 72.5 °F - 70.7 °F 94% 30.04 in 10.0 mi North 4.6 mph - N/A   Clear
1:58 AM 71.4 °F - 70.0 °F 95% 30.03 in 10.0 mi NNE 4.6 mph - N/A   Clear
2:58 AM 71.2 °F - 69.8 °F 95% 30.02 in 10.0 mi ENE 2.3 mph - N/A   Clear
3:58 AM 71.4 °F - 69.8 °F 95% 30.02 in 10.0 mi North 5.8 mph - N/A   Clear
4:58 AM 70.2 °F - 69.4 °F 98% 30.03 in 10.0 mi NNE 4.6 mph - N/A   Clear
5:58 AM 70.2 °F - 69.3 °F 97% 30.04 in 10.0 mi NNE 6.9 mph - N/A   Clear
6:58 AM 70.7 °F - 69.6 °F 96% 30.07 in 10.0 mi NNE 5.8 mph - N/A   Clear
7:58 AM 74.8 °F - 71.4 °F 89% 30.07 in 10.0 mi NNE 3.5 mph - N/A   Clear
8:58 AM 77.0 °F - 73.0 °F 88% 30.07 in 10.0 mi NE 3.5 mph - N/A   Clear
9:53 AM 77.0 °F - 73.4 °F 89% 30.06 in 10.0 mi SSW 3.5 mph - N/A   Mostly Cloudy
9:58 AM 77.5 °F - 73.2 °F 86% 30.07 in 10.0 mi Calm Calm - N/A   Mostly Cloudy
10:03 AM 77.0 °F - 71.6 °F 83% 30.05 in 10.0 mi SW 4.6 mph - N/A   Mostly Cloudy
10:13 AM 78.8 °F - 71.6 °F 78% 30.06 in 10.0 mi WNW 2.3 mph - N/A   Mostly Cloudy
10:23 AM 78.8 °F - 71.6 °F 78% 30.06 in 10.0 mi NNW 3.5 mph - N/A   Partly Cloudy
10:58 AM 80.1 °F 83.7 °F 71.4 °F 75% 30.07 in 10.0 mi SW 2.3 mph - N/A   Partly Cloudy
11:58 AM 81.7 °F 86.0 °F 71.6 °F 71% 30.08 in 10.0 mi West 2.3 mph - N/A   Scattered Clouds
12:58 PM 82.8 °F 87.9 °F 72.1 °F 70% 30.08 in 10.0 mi SSE 9.2 mph - N/A   Scattered Clouds
1:58 PM 81.5 °F 86.3 °F 72.5 °F 74% 30.07 in 10.0 mi SSW 11.5 mph - N/A   Partly Cloudy
2:58 PM 81.3 °F 86.5 °F 73.6 °F 77% 30.04 in 10.0 mi SW 5.8 mph - N/A   Clear
3:58 PM 81.9 °F 87.3 °F 73.4 °F 75% 30.02 in 10.0 mi South 3.5 mph - N/A   Partly Cloudy
4:58 PM 82.0 °F 87.4 °F 73.0 °F 74% 30.00 in 10.0 mi South 9.2 mph - N/A   Partly Cloudy
5:58 PM 82.2 °F 87.3 °F 72.5 °F 72% 29.98 in 10.0 mi South 9.2 mph - N/A   Clear
6:58 PM 80.8 °F 85.1 °F 72.1 °F 75% 29.98 in 10.0 mi South 4.6 mph - N/A   Clear
7:58 PM 79.3 °F - 71.8 °F 78% 30.01 in 10.0 mi South 3.5 mph - N/A   Clear
8:58 PM 78.1 °F - 72.1 °F 82% 30.03 in 10.0 mi Calm Calm - N/A   Scattered Clouds
9:58 PM 77.5 °F - 71.8 °F 82% 30.03 in 10.0 mi Calm Calm - N/A   Clear
10:58 PM 76.8 °F - 71.4 °F 83% 30.03 in 10.0 mi Calm Calm - N/A   Clear
11:58 PM 76.3 °F - 72.0 °F 86% 30.01 in 10.0 mi Calm Calm - N/A   Clear